[Date Prev][Date Next][Thread Prev][Thread Next] - [Date Index][Thread Index][Author Index]

2 Line ISS Keps 7-30



ISS
1 25544U 98067A   01211.16338789  .00012123  00000-0  16602-3 0  2765
2 25544  51.6377 231.5527 0011335 316.0176 151.6948 15.57777985153793


----
Via the sarex mailing list at AMSAT.ORG courtesy of AMSAT-NA.
To unsubscribe, send "unsubscribe sarex" to Majordomo@amsat.org



AMSAT Top AMSAT Home